Theta_e
346 349 350 350 350 350 348 348 348 347 347 347 344 342 342 341 329 330 336 333 340 340 339 338 338 338 338 338 338 337 337 337 337
352 352 351 350 351 350 347 346 345 345 345 345 343 343 341 333 327 329 332 334 340 339 339 338 338 337 337 337 336 336 336 336 335
352 352 350 349 349 347 346 345 344 343 343 344 345 343 338 332 324 329 332 341 341 340 338 337 337 336 336 336 336 336 335 335 334
350 350 351 350 349 348 347 344 343 342 343 345 346 341 337 327 324 332 333 343 342 341 339 337 337 336 335 334 334 334 333 333 332
347 347 348 349 348 349 347 345 343 342 343 346 344 339 335 325 322 326 333 344 342 341 339 338 337 336 335 334 333 332 331 331 330
342 341 342 346 347 347 347 346 344 341 339 343 340 336 327 322 320 325 340 343 342 341 340 339 338 337 336 335 334 333 332 331 330
342 338 338 344 345 344 346 346 343 338 333 333 337 330 326 324 324 324 341 344 342 342 341 339 338 338 337 336 335 335 334 333 331
339 338 338 336 335 337 339 340 337 333 331 329 330 330 326 324 324 329 341 344 342 341 342 341 339 339 338 338 337 336 336 335 334
338 338 335 334 336 334 334 334 334 333 331 328 327 329 327 325 325 326 336 342 343 341 342 342 341 340 339 339 339 338 338 337 337
337 337 336 333 333 333 331 332 332 332 331 329 326 324 325 324 325 326 330 337 342 343 342 342 343 342 341 340 340 340 340 340 339
338 337 335 335 335 335 333 331 330 329 330 328 328 326 322 323 325 324 328 333 337 342 342 341 342 343 343 343 342 343 343 341 341
335 334 334 335 334 334 334 333 333 329 326 325 327 325 322 322 322 325 324 328 331 336 341 341 342 343 343 344 344 344 343 343 342
328 332 332 334 335 334 332 331 330 329 330 323 322 323 323 322 323 322 324 325 328 330 336 339 342 343 342 343 343 344 343 342 341
326 327 332 332 330 332 332 330 330 327 326 326 325 326 325 325 326 321 321 321 325 325 329 332 334 338 342 341 342 342 343 342 342
324 324 325 327 328 328 327 327 328 328 327 329 330 329 329 326 327 327 326 324 323 326 326 327 328 330 336 340 340 342 343 341 341
325 324 324 325 324 325 327 326 324 323 325 322 322 325 327 327 328 328 326 325 324 323 325 327 327 327 331 334 338 340 342 342 341
324 324 323 323 323 323 324 325 322 322 323 320 317 314 317 324 327 328 328 327 327 324 323 325 325 326 326 327 330 335 339 341 342
325 324 322 322 322 321 321 322 319 317 319 323 320 314 312 313 320 324 326 326 325 325 324 322 323 325 326 327 327 327 332 339 340
325 324 323 322 322 321 321 322 320 319 319 321 326 325 317 315 313 316 321 325 325 325 324 324 324 324 325 325 324 324 326 333 338
323 323 321 320 321 321 321 320 321 323 322 322 321 323 323 323 318 314 318 317 323 324 323 323 323 324 325 326 325 324 329 334 337
Wind_Speed
7 6 5 7 9 8 8 10 10 9 6 7 7 2 4 5 4 5 7 5 7 7 7 7 7 7 7 8 8 8 8 8 8
7 7 8 9 9 10 9 8 8 7 6 5 6 2 4 4 5 5 6 6 8 6 6 6 6 6 6 6 6 6 6 7 7
7 9 8 9 10 10 9 9 7 6 4 4 7 5 4 3 3 4 5 9 9 7 6 5 4 4 4 4 5 4 5 5 5
7 8 9 9 10 10 10 9 8 7 6 7 7 6 6 2 2 4 4 10 10 9 7 5 5 4 3 3 2 3 3 3 3
8 8 9 10 10 10 11 10 9 7 5 6 8 7 7 3 4 3 4 11 10 9 8 7 7 6 4 3 3 2 1 1 1
7 7 9 11 11 10 11 11 9 8 6 6 7 6 3 4 4 2 12 13 11 10 9 9 8 8 7 6 5 4 4 3 2
8 9 12 12 13 12 11 11 10 8 4 3 7 3 5 4 4 3 13 13 12 11 11 10 9 9 9 8 8 7 7 6 5
5 4 4 4 9 4 6 5 4 5 4 4 4 5 5 4 3 4 14 14 13 12 12 11 11 10 10 10 10 9 9 9 8
4 4 5 5 5 6 6 4 5 6 6 6 6 7 5 5 3 5 13 15 14 14 14 14 13 12 12 12 12 12 11 10 11
4 4 5 4 4 5 5 6 6 6 7 6 6 6 7 7 4 3 12 12 13 14 16 16 16 16 15 15 15 15 14 13 13
5 5 4 4 5 5 5 5 6 6 6 8 8 8 6 8 8 4 6 15 15 16 17 17 18 18 18 18 17 16 16 16 15
4 4 4 4 4 5 4 4 3 3 6 8 8 8 7 6 6 6 5 8 14 16 18 19 19 18 19 18 17 16 17 16 15
6 4 4 5 4 4 4 4 4 4 5 4 5 5 5 6 8 6 6 6 7 12 17 19 20 19 20 19 18 16 15 15 14
5 4 4 5 4 4 4 4 4 3 4 5 5 5 5 6 8 7 8 7 8 7 13 18 18 18 19 21 20 19 16 14 14
6 4 5 5 4 4 3 4 4 4 4 5 5 5 5 5 6 9 7 8 9 9 10 8 10 17 19 20 20 20 19 18 15
6 4 4 4 5 5 6 4 5 3 3 1 3 5 7 7 7 5 5 6 8 8 8 7 6 7 18 19 22 23 23 19 19
5 5 4 4 2 3 5 5 3 4 4 3 1 4 4 6 9 9 11 14 9 8 8 9 10 9 7 11 18 18 22 24 23
6 6 4 2 2 3 4 4 5 4 3 6 5 3 6 2 4 9 10 11 10 12 11 11 11 11 10 10 13 17 20 22 23
3 5 4 2 2 4 4 4 5 4 8 4 8 12 4 6 8 3 5 10 12 14 11 13 13 14 11 14 13 13 17 19 22
4 6 5 4 3 4 5 5 6 7 9 8 7 8 9 11 11 12 8 4 8 10 10 10 9 11 10 8 11 15 16 20 20
Wind_Direction
186 188 162 157 145 139 125 124 123 129 134 145 116 346 346 353 13 116 122 106 99 96 91 90 89 87 85 85 83 80 77 74 73
191 166 160 148 153 147 144 139 133 130 128 142 142 228 304 350 329 132 126 131 117 105 98 97 97 95 92 86 82 81 80 74 67
171 163 168 161 161 162 161 160 155 149 170 195 166 199 265 335 359 174 143 144 138 129 121 116 113 106 99 95 91 85 84 80 74
198 179 184 183 178 175 170 171 169 174 195 218 177 208 254 290 289 194 162 159 153 151 151 153 151 146 137 122 118 116 104 92 78
216 199 198 192 190 175 174 176 178 185 199 223 181 210 252 262 265 193 180 172 166 168 172 176 176 176 176 180 195 187 160 113 84
217 208 199 202 195 190 183 182 182 185 193 185 199 221 257 258 243 212 177 181 179 181 189 193 196 195 195 201 212 219 221 220 220
207 206 204 200 196 191 194 189 190 191 194 211 213 212 237 255 254 216 193 187 191 194 199 208 214 214 213 215 220 226 228 233 229
207 195 205 200 192 187 194 191 195 196 202 218 211 219 234 238 235 233 198 194 200 204 210 217 222 229 233 231 232 236 237 242 243
197 180 186 184 193 185 188 187 199 210 215 218 217 215 222 233 223 219 211 198 204 208 215 218 226 232 238 242 244 243 243 245 249
180 177 177 190 176 191 194 197 200 210 220 224 219 222 220 234 224 196 209 206 207 212 219 224 225 228 234 240 242 244 242 242 245
179 180 185 197 196 193 193 198 206 211 214 226 227 235 219 220 222 206 196 209 211 212 221 228 232 233 233 235 238 240 240 242 245
191 179 179 202 214 204 202 220 225 247 219 224 222 229 231 233 230 227 200 211 216 214 218 226 229 236 242 244 245 244 243 238 244
196 186 196 196 198 194 195 203 222 222 243 234 228 226 225 236 241 233 224 202 210 221 223 224 231 229 233 241 245 251 245 239 240
197 180 204 203 202 202 192 205 197 214 239 245 237 230 232 234 240 234 234 213 211 208 219 221 225 230 229 234 240 246 249 245 234
183 195 185 199 199 207 198 203 218 210 214 233 255 250 244 242 237 244 242 235 224 218 217 215 228 229 230 231 241 245 242 244 235
182 191 200 193 185 201 206 201 213 254 220 219 265 250 235 237 241 239 238 251 243 231 215 215 213 219 228 230 230 231 240 239 238
174 162 177 188 199 227 206 198 209 221 192 217 257 279 285 243 234 226 233 240 233 228 222 217 210 213 215 235 240 232 236 237 239
226 186 141 197 177 220 221 215 238 241 229 203 216 267 235 273 233 232 233 236 237 236 235 232 229 228 232 224 230 229 235 242 246
222 68 66 347 299 260 244 235 225 207 253 231 226 243 226 264 278 243 240 237 238 239 237 240 236 231 227 228 225 219 232 237 242
75 77 59 26 336 279 253 261 246 234 241 238 237 237 242 240 248 269 252 240 236 234 235 232 229 225 224 221 222 217 225 235 237